Weather History for Brainerd, MN

Change the Weather History Date:

Friday, November 9, 2012

  Actual Average Record
Temperature  
Mean Temperature 39 °F -  
Max Temperature 41 °F 40 °F 68 °F (1999)
Min Temperature 37 °F 23 °F 2 °F (1979)
Degree Days  
Heating Degree Days 26    
Moisture  
Dew Point 32 °F    
Average Humidity 75    
Maximum Humidity 79    
Minimum Humidity 70    
Precipitation  
Precipitation 0.00 in - - ()
Sea Level Pressure  
Sea Level Pressure 30.09 in    
Wind  
Wind Speed 9 mph (NE)    
Max Wind Speed 15 mph    
Max Gust Speed 23 mph    
Visibility 10 miles    
Events      
Averages and records for this station are not official NWS values.
T = Trace of Precipitation, MM = Missing Value Source: NWS Daily Summary

Daily Weather History Graph

Daily Weather History Graph

Search for Another Location

Airport:

Trip Planner

Search our weather history database for the weather conditions in past years. The results will help you decide how hot, cold, wet, or windy it might be!

Date:

Astronomy

Nov. 09, 2012 Rise Set
Actual Time 7:10 AM CST 4:49 PM CST
Civil Twilight 6:38 AM CST 5:22 PM CST
Nautical Twilight 6:01 AM CST 5:58 PM CST
Astronomical Twilight 5:26 AM CST 6:33 PM CST
Moon 1:54 AM CST (11/9) 2:17 PM CST (11/9)
Length of Visible Light 10h 44m
Length of Day
9h 39m
Waning Crescent, 23% of the Moon is Illuminated
Nov 9
Waning Crescent
Nov 13
New
Nov 20
First Quarter
Nov 28
Full
Dec 6
Last Quarter

Hourly Weather History & Observations

Time (CST) Temp. Windchill Dew Point Humidity Pressure Visibility Wind Dir Wind Speed Gust Speed Precip Events Conditions
12:24 AM 41.0 °F 36.4 °F 33.8 °F 76% 30.06 in 10.0 mi NNE 6.9 mph - N/A   Overcast
12:53 AM 41.0 °F 36.4 °F 34.0 °F 76% 30.10 in 10.0 mi NNE 6.9 mph - N/A   Overcast
1:53 AM 41.0 °F 35.8 °F 34.0 °F 76% 30.10 in 10.0 mi NNE 8.1 mph - N/A   Overcast
2:53 AM 39.9 °F 34.5 °F 33.1 °F 77% 30.10 in 10.0 mi NNE 8.1 mph - N/A   Overcast
3:53 AM 39.0 °F 31.4 °F 32.0 °F 76% 30.12 in 10.0 mi NNE 12.7 mph - N/A   Overcast
4:53 AM 39.0 °F 32.3 °F 30.9 °F 73% 30.13 in 10.0 mi NNE 10.4 mph - N/A   Overcast
5:53 AM 37.9 °F 30.5 °F 30.9 °F 76% 30.13 in 10.0 mi NE 11.5 mph - N/A   Overcast
6:53 AM 37.0 °F 28.5 °F 30.0 °F 76% 30.13 in 10.0 mi NE 13.8 mph - N/A   Overcast
7:53 AM 37.0 °F 29.8 °F 28.9 °F 73% 30.14 in 10.0 mi NE 10.4 mph - N/A   Overcast
8:53 AM 37.0 °F 30.4 °F 28.9 °F 73% 30.15 in 10.0 mi ENE 9.2 mph - N/A   Overcast
9:53 AM 37.9 °F 32.1 °F 30.0 °F 73% 30.13 in 10.0 mi ENE 8.1 mph - N/A   Overcast
10:53 AM 37.9 °F 32.1 °F 30.9 °F 76% 30.14 in 10.0 mi ENE 8.1 mph - N/A   Overcast
11:53 AM 39.9 °F 35.1 °F 30.9 °F 70% 30.12 in 10.0 mi Variable 6.9 mph 17.3 mph N/A   Overcast
12:53 PM 39.9 °F 32.5 °F 32.0 °F 73% 30.09 in 10.0 mi NE 12.7 mph - N/A   Overcast
1:26 PM 41.0 °F 34.3 °F 32.0 °F 70% 30.04 in 10.0 mi ENE 11.5 mph 19.6 mph N/A   Overcast
1:53 PM 41.0 °F 33.1 °F 32.0 °F 70% 30.07 in 10.0 mi ENE 15.0 mph 20.7 mph N/A   Overcast
2:53 PM 41.0 °F 34.7 °F 32.0 °F 70% 30.06 in 10.0 mi ENE 10.4 mph - N/A   Overcast
3:53 PM 39.9 °F 32.9 °F 32.0 °F 73% 30.07 in 10.0 mi ENE 11.5 mph - N/A   Overcast
4:53 PM 39.0 °F 31.0 °F 33.1 °F 79% 30.06 in 10.0 mi ENE 13.8 mph 20.7 mph N/A   Overcast
5:53 PM 39.0 °F 32.3 °F 33.1 °F 79% 30.07 in 10.0 mi ENE 10.4 mph 19.6 mph N/A   Overcast
6:53 PM 37.9 °F 30.9 °F 32.0 °F 79% 30.07 in 10.0 mi ENE 10.4 mph - N/A   Overcast
7:53 PM 39.0 °F 34.8 °F 33.1 °F 79% 30.07 in 10.0 mi East 5.8 mph - N/A   Overcast
8:53 PM 39.0 °F 31.8 °F 32.0 °F 76% 30.06 in 10.0 mi East 11.5 mph 18.4 mph N/A   Overcast
9:53 PM 39.0 °F 31.4 °F 32.0 °F 76% 30.05 in 10.0 mi East 12.7 mph 23.0 mph N/A   Overcast
10:53 PM 37.9 °F 30.9 °F 32.0 °F 79% 30.04 in 10.0 mi East 10.4 mph 21.9 mph N/A   Overcast
11:53 PM 37.9 °F 32.1 °F 32.0 °F 79% 30.01 in 10.0 mi East 8.1 mph 23.0 mph N/A   Overcast